Location: B�rgermoos
(47.6500°N, 9.0667°E)
Time: 02:44:39
(UTC+00:00)

Courier 1B - Pass Details

Date: 03 August 2021
Orbit: 963 x 1209 km, 28.3° (Epoch: 19 September)

Event Time Altitude Azimuth Distance (km) Brightness Sun altitude
Rises 20:40:29 0° 245° (WSW) 4,100 11.0 -14.8°
Reaches altitude 10° 20:44:53 10° 223° (SW) 3,114 10.1 -15.3°
Maximum altitude 20:48:47 15° 192° (SSW) 2,740 9.5 -15.7°
Enters shadow 20:50:30 14° 178° (S) 2,795 9.4 -15.9°
